When you browse on this site, cookies collect data to enhance your experience and personalize the content and advertising you see.
Visit our Privacy Policy to learn more. By continuing to use the site, you agree to this use of cookies and data.
  • In United Kingdom
  • List of Countries
  • For 7 days
  • Water Temperature
  • Weather Map
  • Weather Widgets
  • user-avatar
    Login

    Hourly Weather Kiustendil

    Today, 18 January, Saturday

    Time Temperature Precipitation Wind Pressure Humidity
    00:00 -6°C° 0 mm 1 mps 626 mmHg 73%
    01:00 -6°C° 0 mm 1 mps 626 mmHg 73%
    02:00 -7°C° 0 mm 1 mps 626 mmHg 74%
    03:00 -7°C° 0 mm 1 mps 625 mmHg 75%
    04:00 -7°C° 0 mm 1 mps 625 mmHg 77%
    05:00 -7°C° 0 mm 1 mps 625 mmHg 77%
    06:00 -7°C° 0 mm 1 mps 625 mmHg 77%
    07:00 -7°C° 0 mm 0 mps 625 mmHg 77%
    08:00 -6°C° 0 mm 1 mps 625 mmHg 72%
    09:00 -3°C° 0 mm 1 mps 626 mmHg 67%
    10:00 -2°C° 0 mm 1 mps 626 mmHg 62%
    11:00 -1°C° 0 mm 1 mps 626 mmHg 59%
    12:00 0°C° 0 mm 1 mps 626 mmHg 57%
    13:00 +1°C° 0 mm 1 mps 626 mmHg 55%
    14:00 0°C° 0 mm 1 mps 625 mmHg 61%
    15:00 -1°C° 0 mm 1 mps 625 mmHg 67%
    16:00 -3°C° 0 mm 1 mps 624 mmHg 72%
    17:00 -4°C° 0 mm 0 mps 624 mmHg 76%
    18:00 -5°C° 0 mm 0 mps 624 mmHg 79%
    19:00 -6°C° 0 mm 0 mps 623 mmHg 82%
    20:00 -6°C° 0 mm 0 mps 623 mmHg 83%
    21:00 -6°C° 0 mm 0 mps 623 mmHg 84%
    22:00 -7°C° 0 mm 0 mps 623 mmHg 85%
    23:00 -7°C° 0 mm 0 mps 623 mmHg 86%

    Tomorrow, 19 January, Sunday

    Time Temperature Precipitation Wind Pressure Humidity
    00:00 -7°C° 0 mm 0 mps 623 mmHg 86%
    01:00 -7°C° 0 mm 0 mps 623 mmHg 87%
    02:00 -7°C° 0 mm 0 mps 623 mmHg 87%
    03:00 -7°C° 0 mm 0 mps 623 mmHg 87%
    04:00 -7°C° 0 mm 0 mps 622 mmHg 87%
    05:00 -7°C° 0 mm 0 mps 623 mmHg 87%
    06:00 -8°C° 0 mm 0 mps 623 mmHg 87%
    07:00 -8°C° 0 mm 0 mps 623 mmHg 87%
    08:00 -6°C° 0 mm 0 mps 624 mmHg 82%
    09:00 -4°C° 0 mm 1 mps 624 mmHg 76%
    10:00 -3°C° 0 mm 1 mps 625 mmHg 71%
    11:00 -3°C° 0 mm 1 mps 625 mmHg 69%
    12:00 -2°C° 0 mm 1 mps 625 mmHg 67%
    13:00 -1°C° 0 mm 1 mps 625 mmHg 66%
    14:00 -2°C° 0 mm 1 mps 626 mmHg 69%
    15:00 -3°C° 0 mm 1 mps 626 mmHg 73%
    16:00 -4°C° 0 mm 1 mps 626 mmHg 77%
    17:00 -4°C° 0 mm 1 mps 626 mmHg 79%
    18:00 -6°C° 0 mm 1 mps 626 mmHg 82%
    19:00 -7°C° 0 mm 1 mps 626 mmHg 85%
    20:00 -7°C° 0 mm 1 mps 627 mmHg 85%
    21:00 -7°C° 0 mm 1 mps 627 mmHg 86%
    22:00 -7°C° 0 mm 1 mps 628 mmHg 86%
    23:00 -8°C° 0 mm 1 mps 628 mmHg 86%

    Day after tomorrow, 20 January, Monday

    Time Temperature Precipitation Wind Pressure Humidity
    00:00 -8°C° 0 mm 1 mps 629 mmHg 86%
    01:00 -8°C° 0 mm 1 mps 629 mmHg 86%
    02:00 -8°C° 0 mm 1 mps 629 mmHg 86%
    03:00 -8°C° 0 mm 1 mps 629 mmHg 86%
    04:00 -8°C° 0 mm 1 mps 630 mmHg 85%
    05:00 -8°C° 0 mm 1 mps 630 mmHg 85%
    06:00 -9°C° 0 mm 1 mps 630 mmHg 86%
    07:00 -9°C° 0 mm 1 mps 631 mmHg 86%
    08:00 -8°C° 0 mm 1 mps 632 mmHg 78%
    09:00 -7°C° 0 mm 1 mps 632 mmHg 71%
    10:00 -7°C° 0 mm 2 mps 633 mmHg 63%
    11:00 -6°C° 0 mm 2 mps 634 mmHg 59%
    12:00 -5°C° 0 mm 2 mps 634 mmHg 55%
    13:00 -4°C° 0 mm 2 mps 634 mmHg 51%
    14:00 -5°C° 0 mm 2 mps 634 mmHg 56%
    15:00 -6°C° 0 mm 2 mps 634 mmHg 61%
    16:00 -4°C° 0 mm 1 mps 634 mmHg 65%
    17:00 -6°C° 0 mm 1 mps 634 mmHg 69%
    18:00 -7°C° 0 mm 1 mps 634 mmHg 73%
    19:00 -8°C° 0 mm 1 mps 634 mmHg 77%
    20:00 -8°C° 0 mm 1 mps 634 mmHg 78%
    21:00 -8°C° 0 mm 1 mps 635 mmHg 78%
    22:00 -8°C° 0 mm 1 mps 635 mmHg 79%
    23:00 -9°C° 0 mm 1 mps 634 mmHg 78%

    21 January, Tuesday

    Time Temperature Precipitation Wind Pressure Humidity
    00:00 -9°C° 0 mm 1 mps 634 mmHg 78%
    01:00 -9°C° 0 mm 1 mps 634 mmHg 78%
    02:00 -9°C° 0 mm 1 mps 634 mmHg 78%
    03:00 -9°C° 0 mm 1 mps 634 mmHg 78%
    04:00 -9°C° 0 mm 1 mps 634 mmHg 78%
    05:00 -10°C° 0 mm 1 mps 634 mmHg 79%
    06:00 -10°C° 0 mm 1 mps 634 mmHg 79%
    07:00 -10°C° 0 mm 1 mps 633 mmHg 80%
    08:00 -8°C° 0 mm 1 mps 634 mmHg 72%
    09:00 -7°C° 0 mm 1 mps 635 mmHg 64%
    10:00 -4°C° 0 mm 1 mps 635 mmHg 57%
    11:00 -3°C° 0 mm 1 mps 635 mmHg 54%
    12:00 -2°C° 0 mm 1 mps 635 mmHg 51%
    13:00 -1°C° 0 mm 1 mps 635 mmHg 49%
    14:00 -2°C° 0 mm 1 mps 634 mmHg 54%
    15:00 -3°C° 0 mm 1 mps 634 mmHg 60%
    16:00 -4°C° 0 mm 1 mps 633 mmHg 65%
    17:00 -6°C° 0 mm 1 mps 633 mmHg 68%
    18:00 -6°C° 0 mm 1 mps 632 mmHg 70%
    19:00 -7°C° 0 mm 1 mps 632 mmHg 73%
    20:00 -7°C° 0 mm 1 mps 632 mmHg 72%
    21:00 -7°C° 0 mm 0 mps 632 mmHg 72%
    22:00 -7°C° 0 mm 0 mps 632 mmHg 72%
    23:00 -7°C° 0 mm 0 mps 631 mmHg 71%

    22 January, Wednesday

    Time Temperature Precipitation Wind Pressure Humidity
    00:00 -7°C° 0 mm 0 mps 631 mmHg 70%
    01:00 -8°C° 0 mm 0 mps 631 mmHg 68%
    02:00 -8°C° 0 mm 0 mps 630 mmHg 67%
    03:00 -8°C° 0 mm 0 mps 630 mmHg 66%
    04:00 -8°C° 0 mm 0 mps 629 mmHg 65%
    05:00 -8°C° 0 mm 0 mps 629 mmHg 63%
    06:00 -8°C° 0 mm 0 mps 629 mmHg 61%
    07:00 -8°C° 0 mm 0 mps 629 mmHg 60%
    08:00 -6°C° 0 mm 0 mps 629 mmHg 53%
    09:00 -3°C° 0 mm 1 mps 630 mmHg 47%
    10:00 -1°C° 0 mm 1 mps 631 mmHg 41%
    11:00 0°C° 0 mm 1 mps 630 mmHg 39%
    12:00 +1°C° 0 mm 1 mps 630 mmHg 38%
    13:00 +2°C° 0 mm 1 mps 630 mmHg 36%
    14:00 +1°C° 0 mm 1 mps 629 mmHg 41%
    15:00 -1°C° 0 mm 1 mps 629 mmHg 46%
    16:00 -3°C° 0 mm 0 mps 628 mmHg 50%
    17:00 -3°C° 0 mm 1 mps 627 mmHg 47%
    18:00 -3°C° 0 mm 1 mps 627 mmHg 45%
    19:00 -4°C° 0 mm 1 mps 627 mmHg 42%
    20:00 -4°C° 0 mm 1 mps 627 mmHg 40%
    21:00 -4°C° 0 mm 1 mps 627 mmHg 37%
    22:00 -5°C° 0 mm 0 mps 627 mmHg 35%
    23:00 -4°C° 0 mm 1 mps 626 mmHg 34%

    23 January, Thursday

    Time Temperature Precipitation Wind Pressure Humidity
    00:00 -4°C° 0 mm 1 mps 626 mmHg 32%
    01:00 -4°C° 0 mm 1 mps 626 mmHg 31%
    02:00 -4°C° 0 mm 1 mps 626 mmHg 30%
    03:00 -4°C° 0 mm 1 mps 626 mmHg 29%
    04:00 -4°C° 0 mm 1 mps 626 mmHg 28%
    05:00 -4°C° 0 mm 1 mps 626 mmHg 28%
    06:00 -4°C° 0 mm 1 mps 625 mmHg 28%
    07:00 -4°C° 0 mm 1 mps 625 mmHg 28%
    08:00 -2°C° 0 mm 1 mps 626 mmHg 27%
    09:00 -1°C° 0 mm 1 mps 627 mmHg 26%
    10:00 +1°C° 0 mm 1 mps 628 mmHg 25%
    11:00 +2°C° 0 mm 1 mps 628 mmHg 27%
    12:00 +3°C° 0 mm 1 mps 628 mmHg 28%
    13:00 +4°C° 0 mm 1 mps 628 mmHg 30%
    14:00 +2°C° 0 mm 1 mps 627 mmHg 36%
    15:00 +1°C° 0 mm 1 mps 627 mmHg 42%
    16:00 -2°C° 0 mm 0 mps 626 mmHg 48%
    17:00 -3°C° 0 mm 0 mps 626 mmHg 47%
    18:00 -3°C° 0 mm 1 mps 626 mmHg 46%
    19:00 -3°C° 0 mm 1 mps 625 mmHg 45%
    20:00 -4°C° 0 mm 0 mps 626 mmHg 43%
    21:00 -5°C° 0 mm 0 mps 626 mmHg 42%
    22:00 -5°C° 0 mm 0 mps 626 mmHg 40%
    23:00 -5°C° 0 mm 0 mps 626 mmHg 40%
    Show more